Regional Weather Roundup
Issued by NWS Grand Forks, ND

Home | Current Version | Previous Version | Graphics & Text | Print | Product List | Glossary On
Versions: 1 2 3 4 5 6 7 8 9 10 11 12 13 14 15 16 17 18 19 20 21 22 23 24 25 26 27 28 29 30 31 32 33 34 35 36 37 38 39 40 41 42 43 44 45 46 47 48 49 50
000
ASUS43 KFGF 252131
RWRFGF
PRAIRIE TO PINES  WEATHER ROUNDUP
NATIONAL WEATHER SERVICE EASTERN NORTH DAKOTA/GRAND FORKS ND
400 PM CDT MON MAY 25 2015

 **SATELLITE DATA USED TO AUGMENT SKY COVER AT AUTOMATED STATIONS**
 *****  WEATHER ACROSS EASTERN NORTH DAKOTA  *****

CITY           SKY/WX    TMP DP  RH WIND       PRES   REMARKS
GRAND FORKS    CLOUDY    74  50  42 SE8       29.75S
GRAND FRKS AFB PTSUNNY   75  48  37 SE10      29.75F
GRAND FRKS NWS   N/A     72 N/A N/A SE7         N/A
DEVILS LAKE    MOSUNNY   79  37  22 E14       29.76F
FARGO          CLOUDY    66  53  63 N10       29.78R
WAHPETON ARPT  CLOUDY    63  50  63 NE17G24   29.76S
$$

 ***** WEATHER ACROSS CENTRAL AND WESTERN NORTH DAKOTA  *****

CITY           SKY/WX    TMP DP  RH WIND       PRES   REMARKS
BISMARCK       PTSUNNY   68  55  63 W10       29.85S
MINOT          CLOUDY    75  42  30 NW7       29.81S
JAMESTOWN      CLOUDY    70  50  49 SE6       29.78R
MINOT AFB      MOSUNNY   80  43  26 S6        29.80S
GARRISON         N/A     72  47  40 SW9       29.83S
WILLISTON      PTSUNNY   75  42  30 W3        29.84F
DICKINSON      CLOUDY    66  49  54 SE9       29.88S
HETTINGER      CLOUDY    61  53  75 E10       29.90S
$$

 *****  OTHER AIRPORT OBSERVATIONS IN OUR AREA  *****

CITY           SKY/WX    TMP DP  RH WIND       PRES   REMARKS
WALHALLA         N/A     81  39  22 CALM      29.74F
GRAFTON AIRPOR FAIR      79  46  31 NE8G18    29.75S
VALLEY CITY AR FAIR      68  59  73 S9        29.79R
CANDO          MOCLDY    77  37  24 NE9       29.77F
CAVALIER APRT  FAIR      79  37  22 E7        29.74F
GWINNER        NOT AVBL
SHEYENNE NWR     N/A     65  53  65 NE9       29.95S
ROLLA            N/A     79  32  18 NE8       29.80F
 ***** THE ABOVE OBSERVATIONS ARE NON NWS ARE NOT QUALITY
       CONTROLLED AND MAY MIS-REPORT RAIN FOR SNOW...
$$

  *****  WEATHER ACROSS NORTHERN MINNESOTA  *****

CITY           SKY/WX    TMP DP  RH WIND       PRES   REMARKS
FLAG ISLAND    CLOUDY    64  55  72 S6        29.74F
WARROAD        CLOUDY    72  54  53 S6        29.76S
ROSEAU         CLOUDY    73  48  40 SE5       29.75S
HALLOCK        CLOUDY    79  43  27 N9        29.74S
THF RVR FALLS  CLOUDY    66  52  59 S5        29.79S
BAUDETTE       CLOUDY    67  52  58 S3        29.75F
WASKISH        CLOUDY    64  55  72 CALM      29.78R
CROOKSTON      CLOUDY    70  52  52 S5        29.78S
STEPHEN NDAWN    N/A     75  48  38 SE8         N/A
GREENBUSH NDAW   N/A     75  46  35 SE7         N/A
$$
  *****  WEATHER ACROSS CENTRAL AND WEST MINNESOTA  *****

CITY           SKY/WX    TMP DP  RH WIND       PRES   REMARKS
FOSSTON        DRIZZLE   61  55  82 E7        29.78S
BEMIDJI        LGT RAIN  58  54  86 NE12      29.78S
PARK RAPIDS    LGT RAIN  59  53  80 N17G24    29.73R
ELBOW LAKE     CLOUDY    62  55  78 NE22G30   29.72R
WADENA         DRIZZLE   55  54  94 N22G33    29.71R
DETROIT LAKES  CLOUDY    59  54  82 NE14      29.78R
MOORHEAD       CLOUDY    64  54  68 NE12      29.79R
FERGUS FALLS   CLOUDY    63  54  72 NE16G24   29.75R
MORRIS MN      CLOUDY    64  57  77 N10       29.72R
STAPLES        CLOUDY    57  57 100 CALM      29.69R
$$
  *****  WEATHER ELSEWHERE ACROSS MINNESOTA  *****

CITY           SKY/WX    TMP DP  RH WIND       PRES   REMARKS
DULUTH         CLOUDY    55  52  89 E8        29.71S FOG
INTRNTL FALLS  LGT RAIN  62  54  74 CALM      29.77S
ELY            CLOUDY    57  52  82 NE6G17    29.73S
CLOQUET        DRIZZLE   52  52 100 SE3       29.71S
WHEATON        CLOUDY    59  52  77 N14G23    29.77R
BRAINERD       CLOUDY    59  57  93 NE6       29.69S FOG
HIBBING        RAIN      57  53  86 NE9       29.73R FOG
ALEXANDRIA     CLOUDY    61  57  87 NW12      29.72R
SAINT CLOUD    CLOUDY    66  58  75 SW10      29.69S
MINNEAPOLIS    CLOUDY    69  58  67 SW14G21   29.73R
$$

  *****  WEATHER ACROSS SOUTH DAKOTA  *****

CITY           SKY/WX    TMP DP  RH WIND       PRES   REMARKS
SIOUX FALLS    CLOUDY    70  58  65 W7        29.76S
BROOKINGS      CLOUDY    63  57  82 W10       29.79S
WATERTOWN      CLOUDY    58  53  84 N12       29.79R
HURON          CLOUDY    66  54  65 NE14      29.79S
SISSETON         N/A     63  53  70 NE21G32   29.76R
ABERDEEN       PTSUNNY   68  52  56 E21G28    29.81R
MITCHELL       CLOUDY    68  58  70 N8        29.78R
PIERRE         CLOUDY    62  54  74 NE14      29.81S
MOBRIDGE       CLOUDY    65  56  72 E13       29.83R
RAPID CITY     RAIN      56  54  93 NE10      29.87R FOG
$$

  *****  SOME WEATHER IN NEARBY STATES *****

CITY           SKY/WX    TMP DP  RH WIND       PRES   REMARKS
GLASGOW MT     SUNNY     77  37  23 E13       29.83F
GREAT FALLS MT SUNNY     70  41  34 VRB3      29.86F
CHEYENNE WY    CLOUDY    54  41  61 N14G23    29.94S
SCOTTSBLUFF NE CLOUDY    57  53  86 W10       29.89R
OMAHA NE       PTSUNNY   80  60  50 S14       29.78S
DES MOINES IA  PTSUNNY   78  62  57 S18G25    29.82S
DAVENPORT IA   MOSUNNY   79  62  56 SW16G31   29.89F
CHICAGO IL     PTSUNNY   77  61  57 SW12G26   29.91R
EAU CLAIRE WI  CLOUDY    72  58  61 SW17G23   29.73S
LA CROSSE WI   TSTM      70  59  68 W25G38    29.79R
$$

  *****  SOME NATIONAL WEATHER *****

CITY           SKY/WX    TMP DP  RH WIND       PRES   REMARKS
LA GUARDIA NY  PTSUNNY   82  56  40 S14       30.15F
RALEIGH NC     MOSUNNY   84  56  38 S8        30.26F
ATLANTA GA     CLOUDY    80  66  62 SE10      30.20F
NEW ORLEANS LA TSTM      75  69  81 E10       30.04F
OKLAHOMA CITY  TSTM      61  57  87 E43G51    29.74F FOG
ALBUQUERQUE NM LGT RAIN  62  41  46 N8G20     29.97
SALT LAKE CITY MOSUNNY   69  47  45 NW6       29.95S
LOS ANGELES CA CLOUDY    65  55  70 W7        30.00F
BOISE ID       MOSUNNY   77  40  26 NW6       29.83F
SEATTLE WA     CLOUDY    58  48  69 W8        30.04S
$$

*** WEATHER ACROSS MANITOBA...SASKATCHEWAN AND ONTARIO ***
                ***ONTARIO***

CITY           SKY/WX    TMP DP  RH WIND       PRES   REMARKS
GERALDTON      CLOUDY    61  52  72 S5        29.80F
THUNDER BAY    LGT RAIN  57  55  94 NE9       29.73F
SIOUX LOOKOUT  CLOUDY    75  41  29 VRB2      29.74S
TORONTO        PTSUNNY   81  61  50 SW29G35   29.95F
BIG TROUT LK   SUNNY     66  37  34 SW7       29.79F
PICKLE LAKE    CLOUDY    75  28  17 E6        29.76F
DRYDEN         MOSUNNY   75  39  27 E5        29.74S
KENORA         CLOUDY    77  43  29 CALM      29.76S
$$
                *** MANITOBA***

CITY           SKY/WX    TMP DP  RH WIND       PRES   REMARKS
BRANDON        PTSUNNY   84  37  18 NW13G21   29.75F
DAUPHIN        SUNNY     81  41  24 NE12G17   29.76S
ISLAND LAKE    MOSUNNY   77  37  24 N3        29.75F
PILOT MOUND      N/A     77  36  22 N9          N/A
THE PAS        MOSUNNY   81  36  19 SE8G17    29.72F
THOMPSON       MOSUNNY   79  39  24 VRB6      29.68F
WINNIPEG       PTSUNNY   81  39  22 NE6       29.73F
LYNN LAKE      SUNNY     81  30  16 W12G18    29.64F
CHURCHILL      CLOUDY    34  30  86 NE22      29.92R WCI  22
GILLAM         MOSUNNY   63  37  39 N9        29.76F
$$
                ***SASKATCHEWAN***

CITY           SKY/WX    TMP DP  RH WIND       PRES   REMARKS
ESTEVAN        CLOUDY    75  39  27 S5        29.83S
KINDERSLEY     PTSUNNY   79  32  18 VRB2      29.84F
LLOYDMINSTER   PTSUNNY   77  28  16 NW12G18   29.84S
PRINCE ALBERT  CLOUDY    79  43  27 W6        29.76F
REGINA         PTSUNNY   77  41  27 SW12      29.84S
YORKTON        MOSUNNY   72  43  35 W15G23    29.80R
N. BATTLEFORD  SUNNY     79  34  19 NW14G22   29.83R
LA RONGE       CLOUDY    81  39  22 W12G17    29.72F
SASKATOON      PTSUNNY   82  32  16 NW6       29.82R
SWIFT CURRENT  CLOUDY    77  34  20 SE8G22    29.86R
$$
NOTE: THESE ARE AUTOMATED STATIONS WITH LIMITED QUALITY CONTROL
      "FAIR" INDICATES FEW OR NO CLOUDS BELOW 12,000 FEET WITH NO
      SIGNIFICANT WEATHER AND/OR OBSTRUCTIONS TO VISIBILITY.
      SKY/WX - SKY CONDITION AND SIGNIFICANT WEATHER.
      TMP - AIR TEMPERATURE.    DP   - DEWPOINT TEMPERATURE.
      RH  - RELATIVE HUMIDITY.  PRES - PRESSURE.
      HX  - HEAT INDEX.         WCI  - WIND CHILL INDEX.
$


USA.gov is the U.S. government's official web portal to all federal, state and local government web resources and services.